Location: Tucson
(32.2217°N, 110.9265°W)
Time: 19:59:43
(UTC-07:00)

Hubble Space Telescope - Visible Passes

Search period start: 19 March 2019 00:00
Search period end: 29 March 2019 00:00
Orbit: 537 x 540 km, 28.5° (Epoch: 18 March)

Date Brightness Start Highest point End Pass type
(mag) Time Alt. Az. Time Alt. Az. Time Alt. Az.
21 Mar 3.1 20:06:44 10° S 20:07:21 12° S 20:07:21 12° S visible
22 Mar 2.6 19:55:34 10° SSW 19:57:55 17° SSE 19:57:55 17° SSE visible
23 Mar 2.3 19:44:37 10° SSW 19:47:45 21° SSE 19:48:24 20° SSE visible
24 Mar 2.1 19:33:47 10° SW 19:37:11 25° SSE 19:38:49 19° SE visible
24 Mar 3.8 21:14:05 10° WSW 21:14:11 11° WSW 21:14:11 11° WSW visible
25 Mar 1.9 19:23:02 10° SW 19:26:39 29° SSE 19:29:10 16° ESE visible
25 Mar 3.3 21:03:33 10° WSW 21:04:32 16° WSW 21:04:32 16° WSW visible
26 Mar 1.7 19:12:22 10° SW 19:16:06 34° SSE 19:19:27 12° ESE visible
26 Mar 2.8 20:53:02 10° WSW 20:54:48 23° WSW 20:54:48 23° WSW visible
27 Mar 1.6 19:01:44 10° WSW 19:05:35 38° SSE 19:09:26 10° E visible
27 Mar 2.2 20:42:32 10° WSW 20:45:02 32° WSW 20:45:02 32° WSW visible
28 Mar 1.6 20:32:03 10° W 20:35:13 41° SW 20:35:13 41° SW visible
